This is the latest recevied weather packets stored in our database for station/object N8JE-13. If no packets are shown the sender has not sent any weather packets the latest 10 day(s).
| Time | Temp. | Humidity | Pressure | Rain* | Wind** | Luminosity | Snow |
|---|---|---|---|---|---|---|---|
| 1778007351 | 17.78° C | 79% | 1007 hPa | 0.51 mm | - | - | - |
| 1778007051 | 17.78° C | 80% | 1007.1 hPa | 0.51 mm | - | - | - |
| 1778006750 | 17.78° C | 79% | 1007.1 hPa | 0.51 mm | - | - | - |
| 1778006451 | 17.78° C | 78% | 1007.1 hPa | 0.51 mm | - | - | - |
| 1778006151 | 18.33° C | 74% | 1007.3 hPa | 0.51 mm | - | - | - |
| 1778005851 | 18.89° C | 71% | 1007.3 hPa | 0 mm | - | - | - |
| 1778005551 | 18.89° C | 69% | 1007.3 hPa | 0 mm | - | - | - |
| 1778005250 | 18.89° C | 69% | 1007.3 hPa | 0 mm | - | - | - |
| 1778004950 | 18.89° C | 69% | 1007.3 hPa | 0 mm | - | - | - |
| 1778004651 | 18.89° C | 70% | 1007.2 hPa | 0 mm | - | - | - |
| 1778004351 | 18.89° C | 69% | 1007.2 hPa | 0 mm | - | - | - |
| 1778004051 | 18.89° C | 69% | 1007.2 hPa | 0 mm | - | - | - |
| 1778003752 | 18.89° C | 69% | 1007.2 hPa | 0 mm | - | - | - |
| 1778003451 | 19.44° C | 70% | 1007.2 hPa | 0 mm | - | - | - |
| 1778003151 | 19.44° C | 69% | 1007.2 hPa | 0 mm | - | - | - |
| 1778002851 | 19.44° C | 70% | 1007.2 hPa | 0 mm | - | - | - |
| 1778002551 | 19.44° C | 69% | 1007.3 hPa | 0 mm | - | - | - |
| 1778002251 | 19.44° C | 70% | 1007.3 hPa | 0 mm | - | - | - |
| 1778001952 | 19.44° C | 71% | 1007.3 hPa | 0 mm | - | - | - |
| 1778001652 | 19.44° C | 70% | 1007.4 hPa | 0 mm | - | - | - |
| 1778001351 | 19.44° C | 69% | 1007.5 hPa | 0 mm | - | - | - |
| 1778001050 | 19.44° C | 69% | 1007.4 hPa | 0 mm | - | - | - |
| 1778000750 | 19.44° C | 69% | 1007.6 hPa | 0 mm | - | - | - |
| 1778000452 | 20° C | 69% | 1007.5 hPa | 0 mm | - | - | - |
| 1778000152 | 20° C | 70% | 1007.6 hPa | 0 mm | - | - | - |
* Rain latest hour (hover to see other rain measurements)
** Current wind speed in m/s (hover to see current wind gust speed)